Simultaneous Nadir Overpasses (SNOs) Predictions

Prediction of SNOs between GOES-15 and TERRA Satellite Orbit:

Table of predicted SNOs for the next 14.0 days since TLE Epoch: 12/26/2015
Index Date Time (GOES-15) GOES-15 Lat,Lon TERRA Lat,Lon Distance(km) Time Diff (sec)
1 12/26/2015 19:15:50 -0.06,-134.82 -0.82,-131.13 418.97 80
2 12/27/2015 07:37:15 0.04,-134.77 -0.26,-136.33 175.93 80
3 12/29/2015 07:22:24 0.04,-134.69 0.31,-133.36 150.14 80
4 12/29/2015 19:43:40 -0.03,-134.68 0.78,-138.52 436.64 80
5 12/31/2015 07:10:14 0.04,-134.60 0.95,-130.41 475.98 80
6 12/31/2015 19:31:29 -0.03,-134.59 0.19,-135.56 110.78 80
7 01/02/2016 19:21:59 -0.03,-134.50 -0.46,-132.61 214.68 80
8 01/03/2016 07:43:23 0.01,-134.46 -0.67,-137.80 379.55 80
9 01/05/2016 07:31:12
